Location: Kimberly
(42.5380°N, 114.3640°W)
Time: 00:10:46
(UTC-07:00)

N. Korean satellite - Visible Passes

Search period start: 25 January 2021 00:00
Search period end: 04 February 2021 00:00
Orbit: 452 x 502 km, 97.2° (Epoch: 24 January)

Date Brightness Start Highest point End Pass type
(mag) Time Alt. Az. Time Alt. Az. Time Alt. Az.
25 Jan 8.2 05:38:03 10° NNE 05:41:12 33° E 05:44:18 10° SSE visible
25 Jan 8.2 07:12:18 10° NNW 07:14:13 14° WNW 07:16:08 10° W visible
26 Jan 9.5 05:12:19 10° NE 05:14:27 15° E 05:16:33 10° SE visible
26 Jan 7.3 06:44:49 10° N 06:47:50 28° WNW 06:50:49 10° SW visible
27 Jan 6.3 06:17:55 10° N 06:21:21 66° WNW 06:24:43 10° SSW visible
27 Jan 10.2 18:28:52 10° WSW 18:30:06 11° W 18:31:20 10° WNW visible
28 Jan 7.3 05:51:24 10° NNE 05:54:45 50° E 05:58:03 10° S visible
29 Jan 8.9 05:25:17 10° NE 05:28:03 22° E 05:30:46 10° SSE visible
29 Jan 7.8 06:58:41 10° NNW 07:01:15 20° WNW 07:03:47 10° WSW visible
30 Jan 10.0 05:00:31 10° ENE 05:01:15 10° E 05:01:57 10° ESE visible
30 Jan 6.7 06:31:33 10° N 06:34:48 42° WNW 06:38:01 10° SW visible
31 Jan 6.4 06:04:49 10° NNE 06:08:15 81° ESE 06:11:38 10° S visible
01 Feb 8.2 05:38:27 10° NNE 05:41:35 33° E 05:44:41 10° SSE visible
01 Feb 8.2 07:12:47 10° NW 07:14:36 14° WNW 07:16:25 10° W visible
02 Feb 9.5 05:12:41 10° NE 05:14:49 16° E 05:16:56 10° SE visible
02 Feb 7.3 06:45:14 10° N 06:48:11 28° WNW 06:51:08 10° SW visible
03 Feb 6.3 06:18:17 10° N 06:21:41 64° WNW 06:25:02 10° SSW visible
03 Feb 10.3 18:29:33 10° WSW 18:30:29 11° W 18:31:26 10° WNW visible
